Regional Weather Roundup
Issued by NWS Sioux Falls, SD

Home | Current Version | Previous Version | Graphics & Text | Print | Product List | Glossary On
Versions: 1 2 3 4 5 6 7 8 9 10 11 12 13 14 15 16 17 18 19 20 21 22 23 24 25 26 27 28 29 30 31 32 33 34 35 36 37 38 39 40 41 42 43 44 45 46 47 48 49 50
000
ASUS43 KFSD 230310
RWRFSD

WEATHER ROUNDUP FOR SE SOUTH DAKOTA/SW MINNESOTA/NW IOWA
NATIONAL WEATHER SERVICE SIOUX FALLS SD
1000 PM CDT TUE MAY 22 2018

NOTE: "FAIR" INDICATES FEW OR NO CLOUDS BELOW 12,000 FEET WITH NO
SIGNIFICANT WEATHER AND OR OBSTRUCTIONS TO VISIBILITY.


SDZ038>040-050-052>070-230400-
SOUTHEAST SOUTH DAKOTA

CITY           SKY/WX    TMP DP  RH WIND       PRES   REMARKS
BROOKINGS      PTCLDY    72  62  71 SE9       29.98R
CHAMBERLAIN    MOCLDY    71  68  90 E7        29.92R
HURON          MOCLDY    71  63  75 SE6       29.92R
MADISON        FAIR      68  68 100 SE8       29.97R
MITCHELL       MOCLDY    73  66  78 SE8       29.93R
SIOUX FALLS    CLOUDY    73  64  73 SE8       29.96R
WINNER         FAIR      71  63  75 SE9       29.91R
YANKTON        PTCLDY    72  66  81 E8        29.93R
$$

MNZ071-072-080-081-089-090-097-098-230400-
SOUTHWEST MINNESOTA

CITY           SKY/WX    TMP DP  RH WIND       PRES   REMARKS
FAIRMONT       CLOUDY    72  61  68 SE9       30.01R
JACKSON        CLOUDY    70  61  73 SE7       30.01R
LUVERNE        MOCLDY    72  59  64 SE6       29.98R
MARSHALL       CLEAR     73  60  63 SE8       29.98R
MONTEVIDEO     CLOUDY    70  57  64 SE8       29.99R
PIPESTONE      CLOUDY    72  61  68 SE7       29.99R
REDWOOD FALLS  CLOUDY    70  58  65 E7        29.98R
TRACY          PTCLDY    71  63  74 SE6       29.99R
WINDOM         PTCLDY    72  52  49 E6        30.00R
WORTHINGTON    CLOUDY    68  62  81 SE6       30.01R
$$

IAZ001>003-012>014-020>022-031-032-NEZ013-014-SDZ071-230400-
NORTHWEST IOWA

CITY           SKY/WX    TMP DP  RH WIND       PRES   REMARKS
CHEROKEE       MOCLDY    71  64  78 SE6       29.99R
DENISON        PTCLDY    70  64  83 SE8       30.00R
ESTHERVILLE    CLOUDY    68  60  75 SE9       30.00R
ORANGE CITY    PTCLDY    72  63  73 SE6       29.98R
SHELDON        CLOUDY    72  64  78 SE9       29.97R
SIOUX CITY     MOCLDY    70  65  84 SE10      29.94R
SPENCER        LGT RAIN  73  62  68 SE9       29.99R
STORM LAKE     MOCLDY    70  63  78 SE13      30.00R
$$

ABBREVIATIONS USED IN REMARKS
   TC - TEMPERATURE IN CELSIUS
  WCI - WIND CHILL INDEX
   HX - HEAT INDEX
  VSB - VISIBILITY





USA.gov is the U.S. government's official web portal to all federal, state and local government web resources and services.